Regional Weather Roundup
Issued by NWS Sterling, VA

Home | Current Version | Previous Version | Text Only | Print | Product List | Glossary On
Versions: 1 2 3 4 5 6 7 8 9 10 11 12 13 14 15 16 17 18 19 20 21 22 23 24 25 26 27 28 29 30 31 32 33 34 35 36 37 38 39 40 41 42 43 44 45 46 47 48 49 50
000
ASUS41 KLWX 212310
RWRLWX

REGIONAL WEATHER ROUNDUP
NATIONAL WEATHER SERVICE BALTIMORE MD/WASHINGTON DC
700 PM EDT THU AUG 21 2014

Note: "FAIR" indicates few or no clouds below 12,000 feet
with no significant weather and/or obstructions to visibility.
 TC=TEMPERATURE CELSIUS

 * =Non NWS site. Station does not report precipitation (e.g. rain,
    snow, etc.), thunder, or fog.

DCZ001-MDZ009-015-VAZ040>042-051-053>054-220000-
WASHINGTON METRO
  /KDAA//-FT BELVOIR

CITY           SKY/WX    TMP DP  RH WIND       PRES   REMARKS
WASHINGTON NAT CLOUDY    80  70  71 SW3       30.00S
DULLES         CLOUDY    73  71  93 CALM      29.99F
ANDREWS AFB    CLOUDY    78  74  88 W7        30.00S
QUANTICO       CLOUDY    83  74  74 E3        29.99F
COLLEGE PARK*  CLOUDY    81  72  74 SW5       29.99S
LEESBURG*      CLOUDY    73  73 100 CALM      30.01S
GAITHERSBURG*  CLOUDY    73  70  88 NW3       30.06R THUNDER

$$

MDZ006>007-011-014-220000-
BALTIMORE METRO

CITY           SKY/WX    TMP DP  RH WIND       PRES   REMARKS
BWI AIRPORT    CLOUDY    81  69  67 SW9       29.98S
MD SCIENCE CTR   N/A     83  73  72 MISG      29.98S
MARTIN STATE   CLOUDY    81  75  83 E3        29.99F
ANNAPOLIS      CLOUDY    81  71  71 S5        29.98S
FORT MEADE*    CLOUDY    77  72  83 W8        30.01S

$$

MDZ012-015-019>023-220000-
MARYLAND EASTERN SHORE

CITY           SKY/WX    TMP DP  RH WIND       PRES   REMARKS
OCEAN CITY     CLOUDY    77  72  84 S3        30.02R
SALISBURY      CLOUDY    79  74  84 E5        30.01R
BAY BRIDGE AP*   N/A     81  72  74 S3        29.99R
CAMBRIDGE*     CLOUDY    81  72  74 CALM      29.99S
EASTON*        CLOUDY    81  75  83 SE7       30.03R

$$

MDZ017>025-220000-
SOUTHERN MARYLAND

CITY           SKY/WX    TMP DP  RH WIND       PRES   REMARKS
PATUXENT RIVER CLOUDY    80  73  79 S6        29.98F
ST INIGOES     CLOUDY    81  73  76 SE5       29.98S
LEONARDTOWN*   CLOUDY    81  70  69 CALM      30.01S

$$

MDZ003>005-220000-
NORTH CENTRAL MARYLAND

CITY           SKY/WX    TMP DP  RH WIND       PRES   REMARKS
FREDERICK*     MOCLDY    75  72  88 CALM      30.02S
HAGERSTOWN APT CLOUDY    78  69  73 SW3       30.00R
WESTMINSTER*   CLOUDY    81  72  74 S5        30.01R

$$

MDZ501>502-220000-
WESTERN MARYLAND

CITY           SKY/WX    TMP DP  RH WIND       PRES   REMARKS
OAKLAND*       CLOUDY    64 N/A N/A W7        30.13S
CUMBERLAND*    CLOUDY    77  64  65 S6        30.05F

$$

VAZ025>031-220000-
SHENANDOAH VALLEY

CITY           SKY/WX    TMP DP  RH WIND       PRES   REMARKS
WINCHESTER*    CLOUDY    81  64  57 W10       30.02R
STAUNTON*      CLOUDY    80  66  62 CALM      30.08R

$$

WVZ021-048>050-054>055-220000-
EASTERN WEST VIRGINIA PANHANDLE

CITY           SKY/WX    TMP DP  RH WIND       PRES   REMARKS
MARTINSBURG    CLOUDY    80  66  62 S5        30.00S
PETERSBURG*    NOT AVBL

$$

VAZ036>039-050-220000-
CENTRAL FOOTHILLS

CITY           SKY/WX    TMP DP  RH WIND       PRES   REMARKS
CHARLOTTESVILL CLOUDY    80  72  76 S5        30.02R
ORANGE*        CLOUDY    81  73  78 CALM      30.02S

$$

VAZ055>057-220000-
NORTH AND CENTRAL PIEDMONT

CITY           SKY/WX    TMP DP  RH WIND       PRES   REMARKS
FREDERICKSBRG* CLOUDY    82  74  77 CALM      29.98S
STAFFORD*      CLOUDY    80  80 100 CALM      30.03S

$$

NCZ024-NYZ072-PAZ021-071-VAZ022-071-220000-
OTHER REGIONAL OBSERVATIONS

CITY           SKY/WX    TMP DP  RH WIND       PRES   REMARKS
NEW YORK CITY  PTCLDY    74  55  51 MISG      30.04S
PHILADELPHIA   CLOUDY    80  69  69 S9        30.00R
PITTSBURGH     CLOUDY    74  67  78 SW9       30.03S
ROANOKE        CLOUDY    73  68  84 NW7       30.10R THUNDER
RICHMOND       CLOUDY    87  67  51 SW7       30.00S HX  90
RALEIGH        PTSUNNY   86  68  54 NW3       30.04R

$$

ANZ530>537-220000-
MARINE OBSERVATIONS

STATION/POSITION TIME  TEMP    WIND        PRES
                       AIR SEA DIR/SP/G
                 (UTC) (F)     (DEG/KT/KT) (MB)
THOMAS PT LIGHT  2300   80 80  200/  8/  9 1015.9S
BALT KEY BRIDGE  2300   81     130/  5/  6 1014.9R
COVE POINT       2300   80     200/  8/  9 1015.3S
LEWISETTA        2300   80 83  170/  5/  7 1015.0F
SOLOMONS ISLAND  2300      80                N/A
PINEY POINT      2300          190/  4/  5   N/A

$$




USA.gov is the U.S. government's official web portal to all federal, state and local government web resources and services.